Weather History for KAEL - July, 2013

Change the Weather History Date:

Wednesday, July 10, 2013

  Actual Average Record
Temperature  
Mean Temperature 72 °F -  
Max Temperature 80 °F 78 °F 87 °F (2005)
Min Temperature 64 °F 59 °F 46 °F (1996)
Cooling Degree Days 7    
Growing Degree Days 22 (Base 50)    
Moisture  
Dew Point 56 °F    
Average Humidity 61    
Maximum Humidity 88    
Minimum Humidity 32    
Precipitation  
Precipitation 0.00 in - - ()
Sea Level Pressure  
Sea Level Pressure 30.04 in    
Wind  
Wind Speed 7 mph (NNW)    
Max Wind Speed 12 mph    
Max Gust Speed 21 mph    
Visibility 10 miles    
Events      
Averages and records for this station are not official NWS values.
T = Trace of Precipitation, MM = Missing Value Source: NWS Daily Summary

Daily Weather History Graph

Daily Weather History Graph

Search for Another Location

Airport or City:

Trip Planner

Search our weather history database for the weather conditions in past years. The results will help you decide how hot, cold, wet, or windy it might be!

Date:

Astronomy

Jul. 10, 2013 Rise Set
Actual Time 5:41 AM CDT 8:55 PM CDT
Civil Twilight 5:06 AM CDT 9:30 PM CDT
Nautical Twilight 4:21 AM CDT 10:15 PM CDT
Astronomical Twilight 3:25 AM CDT 11:11 PM CDT
Moon 8:09 AM CDT (7/10) 9:58 PM CDT (7/10)
Length of Visible Light 16h 24m
Length of Day
15h 13m
Waxing Crescent, 5% of the Moon is Illuminated
Jul 10
Waxing Crescent
Jul 15
First Quarter
Jul 22
Full
Jul 29
Last Quarter
Aug 6
New

Hourly Weather History & Observations

Time (CDT) Temp. Dew Point Humidity Pressure Visibility Wind Dir Wind Speed Gust Speed Precip Events Conditions
12:13 AM 75.2 °F 62.6 °F 65% 29.95 in 10.0 mi NW 9.2 mph 16.1 mph N/A   Clear
12:34 AM 75.2 °F 64.4 °F 69% 29.95 in 10.0 mi NW 6.9 mph - N/A   Clear
12:53 AM 73.4 °F 64.4 °F 73% 29.95 in 10.0 mi NW 9.2 mph - N/A   Clear
1:14 AM 73.4 °F 64.4 °F 73% 29.96 in 10.0 mi NW 9.2 mph - N/A   Clear
1:33 AM 73.4 °F 62.6 °F 69% 29.96 in 10.0 mi NW 6.9 mph - N/A   Clear
1:53 AM 71.6 °F 62.6 °F 73% 29.97 in 10.0 mi NW 9.2 mph - N/A   Clear
2:14 AM 71.6 °F 62.6 °F 73% 29.97 in 10.0 mi NW 8.1 mph - N/A   Clear
2:33 AM 69.8 °F 62.6 °F 78% 29.97 in 10.0 mi NNW 9.2 mph 16.1 mph N/A   Clear
2:54 AM 69.8 °F 62.6 °F 78% 29.98 in 10.0 mi NNW 8.1 mph - N/A   Clear
3:14 AM 69.8 °F 62.6 °F 78% 29.99 in 10.0 mi NW 6.9 mph - N/A   Clear
3:33 AM 68.0 °F 62.6 °F 83% 30.00 in 10.0 mi NNW 6.9 mph - N/A   Clear
3:54 AM 68.0 °F 62.6 °F 83% 30.00 in 10.0 mi NW 4.6 mph - N/A   Clear
4:13 AM 66.2 °F 62.6 °F 88% 30.01 in 10.0 mi NW 6.9 mph - N/A   Clear
4:34 AM 66.2 °F 62.6 °F 88% 30.01 in 10.0 mi NW 6.9 mph - N/A   Clear
4:54 AM 66.2 °F 60.8 °F 83% 30.02 in 10.0 mi NW 6.9 mph - N/A   Clear
5:13 AM 66.2 °F 60.8 °F 83% 30.03 in 10.0 mi NNW 6.9 mph - N/A   Clear
5:34 AM 64.4 °F 59.0 °F 83% 30.03 in 10.0 mi NW 6.9 mph - N/A   Clear
5:54 AM 64.4 °F 57.2 °F 77% 30.04 in 10.0 mi NW 6.9 mph - N/A   Clear
6:14 AM 64.4 °F 57.2 °F 77% 30.05 in 10.0 mi NNW 9.2 mph - N/A   Clear
6:33 AM 64.4 °F 57.2 °F 77% 30.05 in 10.0 mi NNW 10.4 mph - N/A   Clear
6:54 AM 64.4 °F 55.4 °F 73% 30.05 in 10.0 mi NNW 8.1 mph 18.4 mph N/A   Clear
7:13 AM 64.4 °F 55.4 °F 73% 30.05 in 10.0 mi NNW 9.2 mph - N/A   Clear
7:33 AM 64.4 °F 57.2 °F 77% 30.05 in 10.0 mi NNW 8.1 mph - N/A   Clear
7:54 AM 66.2 °F 55.4 °F 68% 30.06 in 10.0 mi North 9.2 mph - N/A   Clear
8:13 AM 66.2 °F 55.4 °F 68% 30.06 in 10.0 mi NNW 9.2 mph - N/A   Clear
8:33 AM 66.2 °F 55.4 °F 68% 30.06 in 10.0 mi North 6.9 mph - N/A   Clear
8:54 AM 68.0 °F 55.4 °F 64% 30.07 in 10.0 mi North 9.2 mph - N/A   Clear
9:13 AM 69.8 °F 55.4 °F 60% 30.07 in 10.0 mi North 8.1 mph - N/A   Clear
9:34 AM 69.8 °F 53.6 °F 56% 30.07 in 10.0 mi North 10.4 mph - N/A   Clear
9:53 AM 69.8 °F 51.8 °F 53% 30.06 in 10.0 mi North 9.2 mph 18.4 mph N/A   Clear
10:14 AM 71.6 °F 51.8 °F 50% 30.07 in 10.0 mi NNW 10.4 mph 17.3 mph N/A   Clear
10:34 AM 71.6 °F 51.8 °F 50% 30.07 in 10.0 mi NNW 11.5 mph 18.4 mph N/A   Clear
10:53 AM 71.6 °F 51.8 °F 50% 30.06 in 10.0 mi North 11.5 mph 17.3 mph N/A   Clear
11:14 AM 73.4 °F 53.6 °F 50% 30.06 in 10.0 mi North 8.1 mph 17.3 mph N/A   Clear
11:33 AM 73.4 °F 53.6 °F 50% 30.06 in 10.0 mi NNW 8.1 mph - N/A   Clear
11:53 AM 73.4 °F 53.6 °F 50% 30.06 in 10.0 mi North 9.2 mph - N/A   Clear
12:14 PM 75.2 °F 53.6 °F 47% 30.06 in 10.0 mi NNW 9.2 mph 17.3 mph N/A   Clear
12:33 PM 75.2 °F 53.6 °F 47% 30.06 in 7.0 mi North 11.5 mph - N/A   Clear
12:54 PM 75.2 °F 53.6 °F 47% 30.06 in 10.0 mi NNW 9.2 mph 20.7 mph N/A   Clear
1:13 PM 77.0 °F 53.6 °F 44% 30.06 in 7.0 mi NW 5.8 mph - N/A   Clear
1:34 PM 77.0 °F 53.6 °F 44% 30.06 in 10.0 mi NW 8.1 mph - N/A   Clear
1:54 PM 77.0 °F 53.6 °F 44% 30.06 in 10.0 mi North 8.1 mph 17.3 mph N/A   Scattered Clouds
2:13 PM 78.8 °F 53.6 °F 42% 30.06 in 10.0 mi North 9.2 mph - N/A   Scattered Clouds
2:34 PM 78.8 °F 51.8 °F 39% 30.06 in 10.0 mi North 9.2 mph - N/A   Clear
2:53 PM 78.8 °F 51.8 °F 39% 30.06 in 10.0 mi North 9.2 mph - N/A   Clear
3:13 PM 78.8 °F 51.8 °F 39% 30.06 in 10.0 mi North 8.1 mph - N/A   Clear
3:34 PM 78.8 °F 51.8 °F 39% 30.06 in 7.0 mi North 9.2 mph - N/A   Clear
3:53 PM 78.8 °F 51.8 °F 39% 30.06 in 10.0 mi North 8.1 mph - N/A   Clear
4:13 PM 80.6 °F 51.8 °F 37% 30.06 in 10.0 mi NNW 6.9 mph - N/A   Scattered Clouds
4:33 PM 78.8 °F 50.0 °F 36% 30.05 in 10.0 mi NNW 4.6 mph - N/A   Scattered Clouds
4:54 PM 78.8 °F 51.8 °F 39% 30.04 in 10.0 mi NNW 5.8 mph - N/A   Clear
5:14 PM 78.8 °F 50.0 °F 36% 30.04 in 10.0 mi NNW 6.9 mph 16.1 mph N/A   Clear
5:33 PM 78.8 °F 48.2 °F 34% 30.04 in 10.0 mi NNW 6.9 mph - N/A   Clear
5:54 PM 78.8 °F 48.2 °F 34% 30.04 in 10.0 mi NNW 10.4 mph - N/A   Clear
6:14 PM 78.8 °F 46.4 °F 32% 30.04 in 10.0 mi NNW 6.9 mph - N/A   Clear
6:33 PM 78.8 °F 50.0 °F 36% 30.03 in 10.0 mi NNW 4.6 mph - N/A   Clear
6:54 PM 78.8 °F 51.8 °F 39% 30.03 in 10.0 mi NNW 4.6 mph - N/A   Clear
7:14 PM 77.0 °F 51.8 °F 41% 30.03 in 10.0 mi NW 3.5 mph - N/A   Clear
7:33 PM 75.2 °F 51.8 °F 44% 30.03 in 10.0 mi North 4.6 mph - N/A   Clear
7:54 PM 75.2 °F 53.6 °F 47% 30.03 in 10.0 mi NNW 3.5 mph - N/A   Clear
8:14 PM 73.4 °F 55.4 °F 53% 30.03 in 10.0 mi Calm Calm - N/A   Clear
8:33 PM 73.4 °F 55.4 °F 53% 30.03 in 10.0 mi Calm Calm - N/A   Clear
8:54 PM 71.6 °F 57.2 °F 60% 30.03 in 10.0 mi Calm Calm - N/A   Clear
9:14 PM 69.8 °F 57.2 °F 64% 30.03 in 10.0 mi Calm Calm - N/A   Clear
9:33 PM 68.0 °F 60.8 °F 78% 30.04 in 10.0 mi Calm Calm - N/A   Clear
9:54 PM 66.2 °F 60.8 °F 83% 30.05 in 10.0 mi Calm Calm - N/A   Clear
10:14 PM 66.2 °F 60.8 °F 83% 30.05 in 10.0 mi Calm Calm - N/A   Clear
10:33 PM 66.2 °F 59.0 °F 78% 30.06 in 10.0 mi Calm Calm - N/A   Clear
10:54 PM 64.4 °F 60.8 °F 88% 30.06 in 10.0 mi Calm Calm - N/A   Clear
11:14 PM 64.4 °F 59.0 °F 83% 30.07 in 7.0 mi Calm Calm - N/A   Clear
11:33 PM 64.4 °F 57.2 °F 77% 30.07 in 10.0 mi Calm Calm - N/A   Clear
11:54 PM 64.4 °F 60.8 °F 88% 30.08 in 10.0 mi Calm Calm - N/A   Clear